DECAYED

OBJECT C, 43664 (Decayed)

Orbit data source: Space-Track

You're viewing an uncataloged RSO

Recently launched and/or uncataloged RSOs may have evolving metadata. Metadata may include the following, but is not limited to: Owner, Manufacturer, Bus, Motor, and Mission.

OBJECT C, 43664 was a Chinese satellite in LEO that was launched on Mon, 29 Oct 2018 UTC via a CHANG ZHENG 2C launch vehicle from the Jiuquan Satellite Launch Center, China (JSC). Unknown objects in Earth's orbit typically refer to objects detected orbiting the Earth but have not yet been identified or cataloged. These objects could be anything from previously untracked satellites, spent rocket stages, debris from satellite collisions, or even natural meteoroids temporarily captured by Earth's gravity. This object's orbit decayed before it could be identified.

Loading next visibility...
Identifier
43664, 2018-083C
Orbit
Decayed
Country
Flag of CNCN / PRC
Related business
None
Manufacturer
Unknown
Mission
Decayed Commercial Technology
Bus & Motor
Unknown
Mass
Unknown
Launch date (UTC)
2018-10-29 (8 years ago)
Launch vehicle
CHANG ZHENG 2C
Launch site
Jiuquan Satellite Launch Center, China (JSC)
Object type
Unknown
Shape & HBR
Box, 0.2 m
Radar Cross Section
0.080 m², Medium (>0.1 m² and < 1m²)

Expand to show TLE details & history
Last TLE update: 2 years ago

TLE from 2 years ago
0 OBJECT C
1 43664U 18083C   25051.98014754  .14472615  25552-5  55359-3 0  9998
2 43664  97.2805  93.0345 0009029 242.3668 117.6717 16.43315481351736
Epoch: 2025-02-20T23:31Z
TLE epoch observation values (Epoch: 2025-02-20T23:31:24.747Z)
Latitude
-0.00006°
Longitude
-50.96662°
Altitude
163.002 km
Speed
7.807 km/s
True Right ascension
06h 12m 08s
True Declination
0° 00' 00"
Sunlit
Object was in full shadow at epoch
Visualization orbit readout
Latitude
Unknown
Longitude
Unknown
Altitude
Unknown
Speed
Unknown
Apparent Right ascension
Unknown
Apparent Declination
Unknown
Sunlit
N/A
Visualization observer readout
Local Sidereal Time
20:24:41
Azimuth
Unknown
Elevation
Unknown
Doppler factor
Unknown
Orbital elements
Apogee altitude
159.693 km
Perigee altitude
147.898 km
Semi-major axis
6,531.933 km
Eccentricity
0.0009
Inclination
97.2805°
RAAN
93.0345°
Arg. of periapsis
242.3668°
True anomaly
117.76328°
Mean anomaly
117.6717°
Eccentric anomaly
117.7175°
Mean motion
4.11131 °/min
Orbital period
87.56 mins
BSTAR
0.00055359
Loading maneuver chart data...
Computing Atmospheric mass density...
Loading historical data...
Loading historical data...
Loading historical data...
Loading historical data...
Loading historical data...
Loading historical data...
Loading historical data...

Documentation

Showing up to 5 results
|